STARLINK-1832 (46780 NORAD) Tracking and Keplerian Element Data

This shows tracking and keplerian element data for the satellite.

Feedback or suggestion? Click here.




ElementValue
Catalog46780
NameSTARLINK-1832
Epoch Orbit181
Epoch Day17.91667824
Epoch Year2021
RAAN102.8129
Inclination53.0539
Eccentricity0.0002502
Argument of Perigee338.9527
Mean Anonmoly163.251
Mean Motion15.62748061
Decay Rate-8.527E-05
L11 46780U 20074AT 21017.91667824 -.00008527 00000-0 -87384-4 0 9990
L22 46780 53.0539 102.8129 0002502 338.9527 163.2510 15.62748061 1819

Live tracking and technical data element details for STARLINK-1832 (NORAD 46780). STARLINK-1832 can be tracked NOW for your location showing map with azimuth and elevation plus other details from your city location.

Track the satellite on the map from your city or location and see movement details for azimuth, elevation, latitude, longitude, range, height, and movement on the map or in text.







IsCatalogInMostPopularTable: catalog: 46780, numindb: 31
Update: records affected: 1



GetName: 46780 STARLINK-1832

Hit Count: updated at: Mon, 18 Jan 2021 16:00:58 GMT